www.pogodaiklimat.ru

Погода и климат >> Архив погоды >> Россия >> Ханты-Мансийский АО >> Ваховск


ПОГОДА в Ваховске

  • Прогноз погоды в Ваховске
  • Монитор погоды в Ваховске
  • Климат города

АРХИВ ПОГОДЫ в Ваховске

Время (UTC), дата Ветер
(напр.,м/с)
 
Видим.   Явления Облачность Т
(С)
Тd
(С)
f
(%)
Тe
(С)
Тes
(С)
Комфортность P
(гПа)
Po
(гПа)
Тmin
(С)
Tmax
(С)
R
(мм)
R24
(мм)
S
(см)
06 17.06 Ю 4 н/о н/о +14.5 +10.0 74 +13 +13 1005.1 998.6 +11.6
09 17.06 Ю 3
{11}
10 км 6/6 600 м
[Cb cap]
+17.4 +6.9 50 +17 +21 1006.4 999.9
12 17.06 В 1 н/о н/о +18.2 +7.0 48 +19 +19 1007.0 1000.6
18 17.06 В 1 10 км 9/9 600 м
[Cb cap]
+13.4 +9.2 76 +14 +14 1006.7 1000.2
21 17.06 СВ 1 10 км 9/9 600 м
[Cb cap]
+12.7 +10.5 86 +13 +13 1004.8 998.2
00 18.06 СВ 2 10 км 9/9 600 м
[Cb cap]
+14.2 +10.6 79 +14 +14 1003.6 997.1
03 18.06 В 1 10 км 10/10 600 м
[Cb cap]
+14.9 +11.6 81 +15 +15 1002.8 996.3 +12.0
06 18.06 В 2 н/о н/о +18.2 +12.0 67 +19 +19 1002.5 996.1
09 18.06 ЮВ 3 10 км 10/9 600 м
[Cb cap Ci fib]
+21.2 +10.5 50 +23 +24 комфорт 1001.7 995.3
12 18.06 ЮВ 4 н/о н/о +20.5 +9.5 49 +22 +22 комфорт 1002.2 995.8
18 18.06 В 2 10 км {ливн. осадки} 10/10 600 м
[Cb cap]
+14.6 +12.4 87 +14 +14 1002.1 995.6
21 18.06 В 1 10 км {ливн. осадки} 9/9 600 м
[Cb cap]
+13.5 +12.4 93 +14 +14 1000.2 993.7
03 19.06 С 1 10 км 10/10 600 м
[Cb cap]
+15.9 +13.5 86 +17 +17 997.8 991.4 +13.3 2
06 19.06 СЗ 1 н/о н/о +16.9 +13.8 82 +18 +18 997.6 991.1
09 19.06 10 км н/о +20.7 +12.2 58 +24 +25 комфорт 997.5 991.2
12 19.06 С 1 н/о н/о +22.1 +11.7 52 +24 +24 комфорт 997.2 990.9
18 19.06 СВ 1 10 км 8/0
[Ac trans]
+14.0 +12.9 93 +14 +14 995.6 989.2
21 19.06 СЗ 2 10 км 10/0
[Ci fib]
+13.1 +12.1 94 +12 +12 993.6 987.2
03 20.06 З 2 4000 м слабый ливневой дождь {гроза} 10/10 600 м
[Cb cap]
+14.6 +13.6 94 +14 +14 988.1 981.7 +12.1 10
06 20.06 З 3 н/о н/о +14.1 +13.3 95 +13 +13 985.9 979.6
15 20.06 Ю 6-12
{14}
1000 м ливневой дождь 10/10 300 м
[Cb cap]
+12.7 +11.1 90 +10 +10 989.4 982.9 +15.1 73
03 21.06 Ю 3 10 км {ливн. осадки} 10/10 600 м
[Cb cap]
+15.2 +12.9 86 +14 +14 990.7 984.3 +12.6
06 21.06 Ю 3 10 км 10/8 600 м
[Cb cap Ci fib]
+19.6 +12.6 64 +21 +23 комфорт 992.0 985.7
15 21.06 Ю 1 10 км {ливн. осадки} 10/6 600 м
[Cb cap As op]
+17.4 +12.6 73 +18 +18 994.7 988.3 +24.0 0.3
18 21.06 В 2 10 км гроза без осадков {ливн. осадки} 10/10 600 м
[Cb cap]
+16.1 +13.1 82 +16 +16 993.0 986.6
21 21.06 ЮВ 3 4000 м слабый ливневой дождь {гроза} 10/10 600 м
[Cb cap]
+15.6 +13.7 88 +15 +15 990.8 984.5
03 22.06 Ю 5-10
{14}
10 км 1/1 600 м
[Cu hum]
+16.7 +10.0 65 +16 +20 994.4 988.0 +13.9 2
06 22.06 Ю 4
{11}
н/о н/о +21.0 +8.0 43 +22 +22 комфорт 995.8 989.4
09 22.06 Ю 4
{11}
10 км 8/8 600 м
[Cb cap]
+21.7 +5.5 35 +22 +24 комфорт 996.5 990.2
18 22.06 В 2 10 км 10/0
[Ci fib]
+16.9 +9.7 63 +17 +17 996.4 990.0
21 22.06 ЮВ 2 10 км 10/10 600 м
[Cb cap]
+15.9 +10.2 69 +16 +16 995.8 989.4
03 23.06 ЮВ 4
{10}
10 км {ливн. осадки} 10/10 600 м
[Cb cap]
+16.9 +12.8 77 +16 +16 991.5 985.1 +13.9 2
06 23.06 Ю 5-11
{13}
н/о н/о +18.9 +9.6 55 +19 +19 993.3 987.0
09 23.06 ЮВ 4
{12}
10 км 8/8 600 м
[Cb cap]
+18.4 +10.5 60 +19 +20 995.4 989.1
15 23.06 Ю 3
{13}
10 км 4/4 600 м
[Cb cap]
+17.8 +8.4 54 +18 +18 997.2 990.8 +20.5
18 23.06 Ю 2 10 км 3/3 600 м
[Cb cap]
+14.5 +9.1 70 +14 +14 998.8 992.3
21 23.06 ЮВ 2 10 км 3/3 600 м
[Cb cap]
+12.3 +9.6 84 +11 +11 999.6 993.1
00 24.06 ЮВ 2 н/о н/о +12.9 +10.9 88 +12 +12 1000.6 994.1
03 24.06 ЮВ 3 н/о н/о +17.9 +10.2 61 +18 +18 1001.2 994.8 +11.4

 

Местоположение метеостанции Ваховск (Ханты-Мансийский АО, Россия): широта 60.95 долгота 78.77 высота над уровнем моря 56 м.

В архиве по умолчанию представлена погода в Ваховске за последнюю неделю. Архивные данные за месяц целиком и за предыдущие месяцы, начиная с января 2011 года, Вы можете получить, выбрав интересующий диапазон дат из раскрывающегося списка и нажав кнопку "Ввод!".


*Определитесь, кто Вы:
робот инопланетянин человек

Внимание! Время в таблицах - всемирное. Для получения местного времени необходимо прибавить поправку, которая в Ваховске равна 5 ч.

Смотрите также архив погоды в соседних городах и на ближайших метеорологических станциях:

Погода в Александровском (Томская область, Россия) (76 км)
Погода в Ларьяке (Ханты-Мансийский АО, Россия) (81 км)
Погода в Нижневартовске (Ханты-Мансийский АО, Россия) (117 км)
Погода в Радужном (Ханты-Мансийский АО, Россия) (154 км)
Погода в Прохоркино (Томская область, Россия) (164 км)
Погода в Среднем Васюгане (Томская область, Россия) (195 км)
Погода в Корликах (Ханты-Мансийский АО, Россия) (206 км)
Погода в Напасе (Томская область, Россия) (213 км)
Погода в Каргасоке (Томская область, Россия) (239 км)
Погода в Угуте (Ханты-Мансийский АО, Россия) (263 км)

Пояснения к столбцам:

Ветер - указаны скорость ветра в м/с - средняя за 10 мин, порывы в срок и между сроками (в фигурных скобках) и направление, откуда дует ветер: С - северный, СВ - северо-восточный, В - восточный, ЮВ - юго-восточный, Ю - южный, ЮЗ - юго-западный, З - западный, СЗ - северо-западный.
Видимость - горизонтальная дальность видимости в метрах или километрах. При видимости от 1 до 10 км при отсутствии осадков обычно наблюдается дымка, при ухудшении видимости до 1 км и менее - туман. В сухую погоду видимость может ухудшаться дымом, пылью или мглою.
Явления - указаны атмосферные явления, наблюдавшиеся в срок или в последний час перед сроком; фигурными скобками обозначены явления, наблюдавшиеся между сроками (за 1-3 часа до срока); квадратными скобками обозначены град или гололедные отложения с указанием их диаметра в мм.
Облачность - указаны через наклонную черту общая и нижняя облачность в баллах и высота нижней границы облаков в метрах; квадратными скобками обозначены формы облаков: Ci - перистые, Cs - перисто-слоистые, Cc - перисто-кучевые, Ac - высококучевые, As - высокослоистые, Sc - слоисто-кучевые, Ns - слоисто-дождевые, Cu - кучевые, Cb - кучево-дождевые. Подробнее классификацию облаков см. в Атласе облаков (PDF).
T - Температура воздуха - температура, измеренная на высоте 2 м над землей.
Td - Температура точки росы - температура, при понижении до которой содержащийся в воздухе водяной пар достигнет насыщения.
f - Относительная влажность воздуха - влажноcть воздуха, измеренная на высоте 2 м над землей.
Te - Эффективная температура - температура, которую ощущает одетый по сезону человек в тени. Характеристика душности погоды. При расчете учитывается влияние влажности воздуха и скорости ветра на теплоощущения человека.
Tes - Эффективная температура на солнце - температура, которую ощущает человек, с поправкой на солнечный нагрев. Характеристика знойности погоды. Зависит от высоты солнца над горизонтом, облачности и скорости ветра. Ночью, в пасмурную погоду, а также при ветре 12 м/с и более поправка равна нулю.
P - Атмосферное давление - приведенное к уровню моря атмосферное давление.
Po - Атмосферное давление - измеренное на уровне метеостанции атмосферное давление.
Tmin - Минимальная температура - минимум температуры воздуха на высоте 2 м над землей.
Tmax - Максимальная температура - максимум температуры воздуха на высоте 2 м над землей.
R - Количество осадков - Количество выпавших осадков за период времени, мм. При наведении курсора мыши на число - период времени, за который выпало указанное количество осадков.
R24 - Количество осадков - Количество выпавших осадков за 24 часа, мм.
S - Снежный покров - Высота снежного покрова, см. При наведении курсора мыши на число - состояние снежного покрова и степень покрытия местности в баллах.